Location: ??????
(55.7522°N, 37.6156°E)
Time: 18:00:24
(UTC+00:00)

ATLAS 3B R/B - Pass Details

Date: 14 June 2025
Orbit: 935 x 1258 km, 63.8° (Epoch: 12 July)

Event Time Altitude Azimuth Distance (km) Brightness Sun altitude
Rises 23:03:50 0° 312° (NW) 4,218 6.1 -8.5°
Reaches altitude 10° 23:06:46 10° 307° (NW) 3,250 5.4 -8.3°
Maximum altitude 23:14:09 45° 238° (WSW) 1,641 3.4 -7.9°
Drops below altitude 10° 23:21:17 10° 169° (S) 3,140 4.7 -7.5°
Sets 23:24:05 0° 163° (SSE) 4,062 5.3 -7.3°
